TimeCDT,TemperatureF,Dew PointF,Humidity,Sea Level PressureIn,VisibilityMPH,Wind Direction,Wind SpeedMPH,Gust SpeedMPH,PrecipitationIn,Events,Conditions,WindDirDegrees,DateUTC
12:53 AM,70.0,53.1,55,29.76,10.0,West,3.5,-,N/A,,Clear,280,2013-06-26 05:53:00
1:53 AM,69.1,54.0,58,29.77,10.0,Calm,Calm,-,N/A,,Clear,0,2013-06-26 06:53:00
2:53 AM,66.9,55.9,68,29.76,10.0,West,3.5,-,N/A,,Clear,280,2013-06-26 07:53:00
3:53 AM,66.9,55.9,68,29.75,10.0,NW,4.6,-,N/A,,Clear,310,2013-06-26 08:53:00
4:53 AM,64.9,55.9,73,29.76,10.0,North,-9999.0,-,N/A,,Clear,0,2013-06-26 09:53:00
5:53 AM,64.0,55.0,73,29.78,10.0,West,4.6,-,N/A,,Clear,270,2013-06-26 10:53:00
6:53 AM,64.9,57.0,75,29.81,10.0,Calm,Calm,-,N/A,,Clear,0,2013-06-26 11:53:00
7:53 AM,75.0,55.9,51,29.83,10.0,NNE,4.6,-,N/A,,Clear,30,2013-06-26 12:53:00
8:53 AM,82.9,57.9,42,29.85,10.0,East,8.1,-,N/A,,Clear,80,2013-06-26 13:53:00
10:53 AM,90.0,57.9,34,29.86,10.0,East,10.4,-,N/A,,Clear,80,2013-06-26 15:53:00
11:53 AM,93.9,57.9,30,29.86,10.0,East,9.2,-,N/A,,Clear,80,2013-06-26 16:53:00
12:53 PM,96.1,57.9,28,29.87,10.0,East,8.1,-,N/A,,Clear,90,2013-06-26 17:53:00
1:53 PM,98.1,54.0,23,29.85,10.0,Variable,5.8,-,N/A,,Clear,0,2013-06-26 18:53:00
2:53 PM,100.0,52.0,20,29.84,10.0,Calm,Calm,-,N/A,,Clear,0,2013-06-26 19:53:00
3:53 PM,102.0,48.0,16,29.83,10.0,ESE,6.9,-,N/A,,Clear,120,2013-06-26 20:53:00
4:53 PM,104.0,46.9,15,29.82,10.0,Variable,6.9,17.3,N/A,,Clear,0,2013-06-26 21:53:00
5:53 PM,102.0,46.0,15,29.82,10.0,East,4.6,-,N/A,,Clear,90,2013-06-26 22:53:00
6:53 PM,100.9,48.0,17,29.82,9.0,ESE,5.8,-,N/A,,Clear,120,2013-06-26 23:53:00
7:53 PM,97.0,53.1,23,29.81,10.0,SE,4.6,-,N/A,,Clear,130,2013-06-27 00:53:00
8:53 PM,91.0,55.0,29,29.81,9.0,SE,3.5,-,N/A,,Clear,130,2013-06-27 01:53:00
9:53 PM,87.1,55.0,33,29.83,10.0,SE,5.8,-,N/A,,Clear,140,2013-06-27 02:53:00
10:53 PM,87.1,57.9,37,29.84,10.0,SSE,12.7,-,N/A,,Clear,160,2013-06-27 03:53:00
11:53 PM,84.9,60.1,43,29.83,10.0,SSE,6.9,-,N/A,,Clear,160,2013-06-27 04:53:00